Location: Unspecified
(0.0000°N, 0.0000°E)
Time: 21:09:40
(UTC+00:00)

N. Korean satellite - Pass Details

Date: 23 January 2020
Orbit: 456 x 505 km, 97.2° (Epoch: 24 February)

Event Time Altitude Azimuth Distance (km) Brightness Sun altitude
Rises 05:11:53 0° 18° (NNE) 2,550 10.2 -14.1°
Reaches altitude 10° 05:13:58 10° 23° (NNE) 1,680 9.3 -13.6°
Maximum altitude 05:17:31 54° 101° (E) 610 7.4 -12.7°
Drops below altitude 10° 05:21:07 10° 179° (S) 1,708 9.6 -11.9°
Sets 05:23:14 0° 183° (S) 2,599 10.5 -11.4°
